Location: Poughquag
(41.6090°N, 73.6820°W)
Time: 12:50:20
(UTC-04:00)

Vanguard 1 - Pass Details

Date: 31 May 2020
Orbit: 650 x 3833 km, 34.2° (Epoch: 07 July)

Event Time Altitude Azimuth Distance (km) Brightness Sun altitude
Rises 10:30:09 0° 275° (W) 7,382 14.2 54.4°
Reaches altitude 10° 10:34:48 10° 273° (W) 6,603 14.1 55.2°
Maximum altitude 10:57:23 63° 200° (SSW) 4,032 14.2 58.9°
Drops below altitude 10° 11:16:39 10° 125° (SE) 5,747 14.6 61.9°
Sets 11:20:22 0° 122° (ESE) 6,426 14.6 62.5°
